Location: Casco Volunteer Fire Department
(44.5576°N, 87.6146°W)
Time: 03:58:49
(UTC+00:00)

GRACE-FO 1 - Pass Details

Date: 22 January 2026
Orbit: 448 x 461 km, 89.0° (Epoch: 13 February)

Event Time Altitude Azimuth Distance (km) Brightness Sun altitude
Rises 12:24:42 0° 185° (S) 2,453 8.3 -9.7°
Reaches altitude 10° 12:26:45 10° 189° (S) 1,588 7.3 -9.4°
Maximum altitude 12:30:09 62° 271° (W) 517 4.4 -8.8°
Drops below altitude 10° 12:33:37 10° 353° (N) 1,610 6.9 -8.2°
Sets 12:35:42 0° 357° (N) 2,492 7.9 -7.9°
